Location: Tel Aviv
(32.0670°N, 34.7670°E)
Time: 16:48:16
(UTC+02:00)

N. Korean satellite - Visible Passes

Search period start: 03 December 2022 00:00
Search period end: 13 December 2022 00:00
Orbit: 421 x 453 km, 97.3° (Epoch: 02 December)

Date Brightness Start Highest point End Pass type
(mag) Time Alt. Az. Time Alt. Az. Time Alt. Az.
03 Dec 7.4 04:38:46 10° NNE 04:42:03 47° E 04:45:17 10° S visible
04 Dec 9.8 04:01:31 10° ENE 04:03:04 13° E 04:04:36 10° ESE visible
04 Dec 7.5 05:32:48 10° NNW 05:35:32 23° WNW 05:38:13 10° SW visible
05 Dec 6.3 04:53:25 10° NNE 04:56:48 85° E 05:00:08 10° S visible
06 Dec 9.1 04:15:16 10° NE 04:17:50 20° E 04:20:21 10° SE visible
06 Dec 8.1 05:48:12 10° NW 05:50:06 14° WNW 05:52:00 10° WSW visible
07 Dec 6.4 05:08:05 10° N 05:11:23 54° WNW 05:14:38 10° SSW visible
07 Dec 9.6 17:05:52 10° SW 17:08:08 17° W 17:10:26 10° NW visible
08 Dec 8.1 04:29:21 10° NNE 04:32:25 32° E 04:35:26 10° SSE visible
09 Dec 7.1 05:22:46 10° N 05:25:47 31° WNW 05:28:46 10° SW visible
09 Dec 10.2 17:21:54 10° WSW 17:22:39 11° W 17:23:24 10° W visible
10 Dec 7.0 04:43:32 10° NNE 04:46:51 56° E 04:50:05 10° S visible
11 Dec 9.6 04:05:46 10° ENE 04:07:38 14° E 04:09:29 10° SE visible
11 Dec 7.7 05:37:32 10° NNW 05:40:02 20° WNW 05:42:30 10° WSW visible
12 Dec 6.2 04:57:45 10° N 05:01:05 82° WNW 05:04:22 10° SSW visible
